Regional Weather Roundup
Issued by NWS Little Rock, AR

Home | Current Version | Previous Version | Graphics & Text | Print | Product List | Glossary On
Versions: 1 2 3 4 5 6 7 8 9 10 11 12 13 14 15 16 17 18 19 20 21 22 23 24 25 26 27 28 29 30 31 32 33 34 35 36 37 38 39 40 41 42 43 44 45 46 47 48 49 50
000
ASUS44 KLZK 190505
RWRLZK

WEATHER ROUNDUP FOR ARKANSAS
NATIONAL WEATHER SERVICE LITTLE ROCK AR
1200 AM CDT FRI SEP 19 2014

NOTE: "FAIR" INDICATES FEW OR NO CLOUDS BELOW 12,000 FEET WITH NO
SIGNIFICANT WEATHER AND/OR OBSTRUCTIONS TO VISIBILITY.

ARZ001-003-010-029-190600-
NORTHWEST ARKANSAS

CITY           SKY/WX    TMP DP  RH WIND       PRES   REMARKS
FAYETTEVILLE   CLOUDY    65  64  97 E5        30.03R
FORT SMITH     CLEAR     70  67  90 E10       29.99R
HARRISON       CLOUDY    64  63  96 SE7       30.06S FOG
BENTONVILLE    MOCLDY    64  61  88 SE13      30.04R
ROGERS         CLOUDY    65  61  87 E12       30.05R
SILOAM SPGS    CLOUDY    64  59  82 E7        30.03S
HIGHFILL       CLOUDY    64  62  93 E5        30.03R
$$

ARZ004-005-016-190600-
NORTH CENTRAL ARKANSAS

CITY           SKY/WX    TMP DP  RH WIND       PRES   REMARKS
BATESVILLE     MOCLDY    63  61  94 CALM      30.03R
FLIPPIN        CLOUDY    64  61  88 CALM      30.05R
MTN HOME       FOG       61  61 100 CALM      30.04S VSB 3/4
$$

ARZ040-041-190600-
WEST CENTRAL ARKANSAS

CITY           SKY/WX    TMP DP  RH WIND       PRES   REMARKS
MENA           CLOUDY    70  70 100 CALM      30.01S
MOUNT IDA      PTCLDY    72  68  87 E3        29.98F
$$

ARZ009-017-025-026-028-190600-
NORTHEAST ARKANSAS

CITY           SKY/WX    TMP DP  RH WIND       PRES   REMARKS
CORNING          N/A     63  61  94 NE6       30.04R
JONESBORO      CLOUDY    67  63  87 NE6       30.02R
NEWPORT        PTCLDY    65  64  96 NE5       30.03R
WALNUT RIDGE   CLEAR     63  61  94 N5        30.02S
BLYTHEVILLE    CLOUDY    66  63  90 NE3       30.02S
$$

ARZ022-023-033-042-044-190600-
CENTRAL ARKANSAS

CITY           SKY/WX    TMP DP  RH WIND       PRES   REMARKS
LITTLE ROCK    CLOUDY    70  63  78 NE7       30.01S
N LITTLE ROCK  CLOUDY    68  65  90 NE8       30.01S
JACKSONVILLE   CLOUDY    68  64  87 N3        30.01S
SEARCY         CLOUDY    70  63  78 NE8       30.02F
HOT SPRINGS    CLOUDY    72  67  84 E9        30.00S
RUSSELLVILLE   PTCLDY    69  64  84 VRB5      30.01F
CLINTON        CLOUDY    66  64  94 CALM      30.04R FOG
$$

ARZ036-190600-
EAST ARKANSAS

CITY           SKY/WX    TMP DP  RH WIND       PRES   REMARKS
WEST MEMPHIS   CLOUDY    69  66  90 E5        29.99S
$$

ARZ050-053-066-070-073-190600-
SOUTHWEST ARKANSAS

CITY           SKY/WX    TMP DP  RH WIND       PRES   REMARKS
ARKADELPHIA    FAIR      72  71  96 NE6       29.98S
CAMDEN         MOCLDY    72  66  83 CALM      29.96S
TEXARKANA      CLOUDY    73  72  96 E5        29.95S
EL DORADO      CLOUDY    73  71  93 NE6       29.96S
DE QUEEN       MOCLDY    73  70  90 E6        29.95S
$$

ARZ056-057-069-190600-
SOUTHEAST ARKANSAS

CITY           SKY/WX    TMP DP  RH WIND       PRES   REMARKS
PINE BLUFF     PTCLDY    68  66  93 N6        29.99R
STUTTGART      PTCLDY    68  64  88 N5        30.00S
MONTICELLO     CLEAR     70  67  90 CALM      29.97R

$$





USA.gov is the U.S. government's official web portal to all federal, state and local government web resources and services.